| time (UTC) | temp C | wind direction | speed KPH | gust KPH | rain 1hr cm | rain 24hr cm | rain mn cm | humidity % | barometer mb |
| 20260509064657 | 12 | 245 | 0.0 | 4.8 | 0.00 | 0.00 | 0.00 | 62 | 1014.5 |
| 20260509064509 | 13 | 245 | 0.0 | 1.6 | 0.00 | 0.00 | 0.00 | 61 | 1012.9 |
| 20260509064158 | 12 | 245 | 0.0 | 4.8 | 0.00 | 0.00 | 0.00 | 63 | 1014.6 |
| 20260509063657 | 12 | 245 | 1.6 | 4.8 | 0.00 | 0.00 | 0.00 | 63 | 1014.6 |
| 20260509063157 | 12 | 245 | 1.6 | 4.8 | 0.00 | 0.00 | 0.00 | 62 | 1014.7 |
| 20260509063004 | 13 | 244 | 3.2 | 4.8 | 0.00 | 0.00 | 0.00 | 62 | 1013.2 |
| 20260509062658 | 12 | 245 | 0.0 | 0.0 | 0.00 | 0.00 | 0.00 | 64 | 1014.8 |
| 20260509062157 | 13 | 245 | 0.0 | 3.2 | 0.00 | 0.00 | 0.00 | 63 | 1014.9 |
| 20260509061658 | 13 | 245 | 0.0 | 3.2 | 0.00 | 0.00 | 0.00 | 62 | 1014.9 |
| 20260509061512 | 14 | 245 | 0.0 | 3.2 | 0.00 | 0.00 | 0.00 | 60 | 1013.4 |
| 20260509061158 | 13 | 245 | 0.0 | 3.2 | 0.00 | 0.00 | 0.00 | 63 | 1015.1 |
| 20260509060657 | 13 | 245 | 0.0 | 3.2 | 0.00 | 0.00 | 0.00 | 61 | 1015.2 |
| 20260509060158 | 13 | 244 | 0.0 | 0.0 | 0.00 | 0.00 | 0.00 | 55 | 1015.2 |
| 20260509060007 | 15 | 244 | 0.0 | 0.0 | 0.00 | 0.00 | 0.00 | 55 | 1013.6 |
| 20260509055656 | 13 | 244 | 0.0 | 0.0 | 0.00 | 0.00 | 0.00 | 55 | 1015.3 |
| 20260509055156 | 13 | 244 | 0.0 | 0.0 | 0.00 | 0.00 | 0.00 | 54 | 1015.3 |
| 20260509054656 | 14 | 244 | 0.0 | 0.0 | 0.00 | 0.00 | 0.00 | 54 | 1015.4 |
| 20260509054508 | 15 | 244 | 0.0 | 0.0 | 0.00 | 0.00 | 0.00 | 53 | 1013.9 |
| 20260509054156 | 14 | 244 | 0.0 | 0.0 | 0.00 | 0.00 | 0.00 | 53 | 1015.4 |
| 20260509053927 | 14 | 244 | 0.0 | 0.0 | 0.00 | 0.00 | 0.00 | 52 | 1015.6 |
| 20260509053156 | 14 | 244 | 0.0 | 0.0 | 0.00 | 0.00 | 0.00 | 53 | 1015.6 |
| 20260509053018 | 15 | 244 | 0.0 | 0.0 | 0.00 | 0.00 | 0.00 | 52 | 1014.2 |
| 20260509052928 | 14 | 244 | 0.0 | 0.0 | 0.00 | 0.00 | 0.00 | 53 | 1015.8 |
| 20260509052157 | 15 | 244 | 0.0 | 0.0 | 0.00 | 0.00 | 0.00 | 53 | 1015.8 |
| 20260509051656 | 15 | 244 | 0.0 | 0.0 | 0.00 | 0.00 | 0.00 | 53 | 1015.8 |
| 20260509051508 | 16 | 244 | 0.0 | 0.0 | 0.00 | 0.00 | 0.00 | 53 | 1014.2 |
| 20260509051155 | 15 | 244 | 0.0 | 0.0 | 0.00 | 0.00 | 0.00 | 54 | 1015.8 |
| 20260509050656 | 15 | 244 | 0.0 | 4.8 | 0.00 | 0.00 | 0.00 | 54 | 1015.8 |
| 20260509050156 | 15 | 244 | 0.0 | 4.8 | 0.00 | 0.00 | 0.00 | 53 | 1015.9 |
| 20260509050009 | 16 | 244 | 0.0 | 4.8 | 0.00 | 0.00 | 0.00 | 51 | 1014.3 |
| 20260509045656 | 15 | 240 | 0.0 | 16.1 | 0.00 | 0.00 | 0.00 | 50 | 1015.9 |
| 20260509045156 | 15 | 240 | 3.2 | 16.1 | 0.00 | 0.00 | 0.00 | 48 | 1015.9 |
| 20260509044654 | 15 | 242 | 8.0 | 16.1 | 0.00 | 0.00 | 0.00 | 49 | 1015.9 |
| 20260509044511 | 16 | 210 | 4.8 | 16.1 | 0.00 | 0.00 | 0.00 | 48 | 1014.3 |
| 20260509044151 | 15 | 211 | 9.7 | 17.7 | 0.00 | 0.00 | 0.00 | 49 | 1015.9 |
| 20260509043650 | 15 | 211 | 9.7 | 17.7 | 0.00 | 0.00 | 0.00 | 49 | 1015.9 |
| 20260509043149 | 15 | 174 | 8.0 | 12.9 | 0.00 | 0.00 | 0.00 | 51 | 1015.9 |
| 20260509043013 | 16 | 218 | 8.0 | 12.9 | 0.00 | 0.00 | 0.00 | 50 | 1014.2 |
| 20260509042650 | 15 | 207 | 8.0 | 12.9 | 0.00 | 0.00 | 0.00 | 51 | 1016.0 |
| 20260509042155 | 14 | 223 | 8.0 | 12.9 | 0.00 | 0.00 | 0.00 | 51 | 1016.1 |
| 20260509041650 | 14 | 201 | 8.0 | 12.9 | 0.00 | 0.00 | 0.00 | 52 | 1016.1 |
| 20260509041508 | 15 | 202 | 6.4 | 12.9 | 0.00 | 0.00 | 0.00 | 52 | 1014.3 |
| 20260509041420 | 14 | 201 | 8.0 | 12.9 | 0.00 | 0.00 | 0.00 | 54 | 1016.2 |
| 20260509040650 | 14 | 198 | 6.4 | 12.9 | 0.00 | 0.00 | 0.00 | 52 | 1016.2 |
| 20260509040150 | 14 | 212 | 6.4 | 11.3 | 0.00 | 0.00 | 0.00 | 53 | 1016.2 |
| 20260509040009 | 15 | 214 | 4.8 | 11.3 | 0.00 | 0.00 | 0.00 | 54 | 1014.5 |
| 20260509035654 | 14 | 203 | 6.4 | 9.7 | 0.00 | 0.00 | 0.00 | 56 | 1016.2 |
| 20260509035650 | 14 | 202 | 6.4 | 9.7 | 0.00 | 0.00 | 0.00 | 56 | 1016.2 |
| 20260509034649 | 14 | 202 | 6.4 | 9.7 | 0.00 | 0.00 | 0.00 | 56 | 1016.2 |
| 20260509034505 | 15 | 202 | 4.8 | 9.7 | 0.00 | 0.00 | 0.00 | 55 | 1014.4 |
| 20260509034420 | 14 | 186 | 6.4 | 9.7 | 0.00 | 0.00 | 0.00 | 56 | 1016.1 |
| 20260509033650 | 14 | 207 | 6.4 | 9.7 | 0.00 | 0.00 | 0.00 | 57 | 1016.2 |
| 20260509033150 | 14 | 205 | 6.4 | 9.7 | 0.00 | 0.00 | 0.00 | 57 | 1016.2 |
| 20260509033007 | 15 | 200 | 4.8 | 9.7 | 0.00 | 0.00 | 0.00 | 56 | 1014.4 |
| 20260509032650 | 14 | 215 | 6.4 | 9.7 | 0.00 | 0.00 | 0.00 | 57 | 1016.1 |
| 20260509032150 | 14 | 201 | 6.4 | 9.7 | 0.00 | 0.00 | 0.00 | 58 | 1016.1 |
| 20260509031649 | 14 | 200 | 6.4 | 9.7 | 0.00 | 0.00 | 0.00 | 58 | 1016.1 |
| 20260509031508 | 15 | 208 | 6.4 | 9.7 | 0.00 | 0.00 | 0.00 | 58 | 1014.4 |
| 20260509031150 | 14 | 200 | 6.4 | 9.7 | 0.00 | 0.00 | 0.00 | 58 | 1016.1 |
| 20260509030650 | 14 | 204 | 4.8 | 8.0 | 0.00 | 0.00 | 0.00 | 56 | 1016.0 |
| 20260509030421 | 14 | 221 | 3.2 | 6.4 | 0.00 | 0.00 | 0.00 | 53 | 1016.1 |
| 20260509030255 | 15 | 221 | 0.0 | 4.8 | 0.00 | 0.00 | 0.00 | 52 | 1016.1 |
| 20260509030006 | 16 | 223 | 3.2 | 6.4 | 0.00 | 0.00 | 0.00 | 53 | 1014.2 |
| 20260509025149 | 15 | 221 | 0.0 | 3.2 | 0.00 | 0.00 | 0.00 | 51 | 1016.0 |
| 20260509024649 | 15 | 221 | 0.0 | 3.2 | 0.00 | 0.00 | 0.00 | 50 | 1016.1 |
| 20260509024506 | 16 | 221 | 0.0 | 0.0 | 0.00 | 0.00 | 0.00 | 49 | 1014.2 |
| 20260509024150 | 15 | 221 | 1.6 | 4.8 | 0.00 | 0.00 | 0.00 | 50 | 1016.0 |
| 20260509023651 | 15 | 221 | 1.6 | 6.4 | 0.00 | 0.00 | 0.00 | 49 | 1015.9 |
| 20260509023149 | 15 | 221 | 0.0 | 6.4 | 0.00 | 0.00 | 0.00 | 49 | 1016.0 |
| 20260509023008 | 16 | 160 | 0.0 | 0.0 | 0.00 | 0.00 | 0.00 | 49 | 1014.1 |
| 20260509022650 | 16 | 159 | 0.0 | 0.0 | 0.00 | 0.00 | 0.00 | 49 | 1015.9 |
| 20260509022150 | 16 | 159 | 0.0 | 0.0 | 0.00 | 0.00 | 0.00 | 49 | 1015.9 |
| 20260509021650 | 16 | 159 | 0.0 | 0.0 | 0.00 | 0.00 | 0.00 | 48 | 1015.8 |
| 20260509021508 | 17 | 159 | 0.0 | 0.0 | 0.00 | 0.00 | 0.00 | 47 | 1014.0 |
| 20260509021155 | 16 | 134 | 1.6 | 6.4 | 0.00 | 0.00 | 0.00 | 47 | 1015.6 |
| 20260509021150 | 16 | 134 | 0.0 | 1.6 | 0.00 | 0.00 | 0.00 | 48 | 1015.8 |
| 20260509020421 | 16 | 185 | 3.2 | 6.4 | 0.00 | 0.00 | 0.00 | 47 | 1015.8 |
| 20260509020007 | 18 | 178 | 1.6 | 6.4 | 0.00 | 0.00 | 0.00 | 46 | 1014.0 |
| 20260509015649 | 17 | 177 | 3.2 | 8.0 | 0.00 | 0.00 | 0.00 | 46 | 1015.8 |
| 20260509015150 | 17 | 177 | 1.6 | 8.0 | 0.00 | 0.00 | 0.00 | 43 | 1015.6 |
| 20260509014649 | 17 | 173 | 0.0 | 6.4 | 0.00 | 0.00 | 0.00 | 43 | 1015.8 |
| 20260509014511 | 18 | 172 | 0.0 | 4.8 | 0.00 | 0.00 | 0.00 | 42 | 1013.8 |
| 20260509014421 | 17 | 172 | 1.6 | 6.4 | 0.00 | 0.00 | 0.00 | 43 | 1015.5 |
| 20260509014255 | 17 | 172 | 3.2 | 8.0 | 0.00 | 0.00 | 0.00 | 42 | 1015.5 |
| 20260509013149 | 18 | 172 | 3.2 | 8.0 | 0.00 | 0.00 | 0.00 | 42 | 1015.5 |
| 20260509013010 | 19 | 172 | 3.2 | 8.0 | 0.00 | 0.00 | 0.00 | 41 | 1013.7 |
| 20260509012648 | 18 | 173 | 3.2 | 8.0 | 0.00 | 0.00 | 0.00 | 41 | 1015.5 |
| 20260509012148 | 18 | 173 | 3.2 | 8.0 | 0.00 | 0.00 | 0.00 | 41 | 1015.5 |
| 20260509011648 | 18 | 174 | 4.8 | 8.0 | 0.00 | 0.00 | 0.00 | 40 | 1015.5 |
| 20260509011508 | 20 | 173 | 1.6 | 8.0 | 0.00 | 0.00 | 0.00 | 40 | 1013.6 |
| 20260509011418 | 18 | 173 | 6.4 | 9.7 | 0.00 | 0.00 | 0.00 | 39 | 1015.5 |
| 20260509010647 | 18 | 180 | 6.4 | 11.3 | 0.00 | 0.00 | 0.00 | 39 | 1015.4 |
| 20260509010145 | 19 | 176 | 8.0 | 11.3 | 0.00 | 0.00 | 0.00 | 38 | 1015.4 |
| 20260509010011 | 20 | 177 | 6.4 | 12.9 | 0.00 | 0.00 | 0.00 | 37 | 1013.6 |
| 20260509005646 | 19 | 178 | 6.4 | 12.9 | 0.00 | 0.00 | 0.00 | 38 | 1015.5 |
| 20260509005415 | 19 | 132 | 6.4 | 12.9 | 0.00 | 0.00 | 0.00 | 36 | 1015.6 |
| 20260509004645 | 20 | 166 | 8.0 | 12.9 | 0.00 | 0.00 | 0.00 | 37 | 1015.5 |
| 20260509004527 | 21 | 174 | 8.0 | 12.9 | 0.00 | 0.00 | 0.00 | 37 | 1013.6 |
| 20260509004145 | 20 | 174 | 6.4 | 14.5 | 0.00 | 0.00 | 0.00 | 38 | 1015.5 |
| 20260509003645 | 20 | 176 | 4.8 | 14.5 | 0.00 | 0.00 | 0.00 | 38 | 1015.5 |
| 20260509003143 | 20 | 163 | 4.8 | 14.5 | 0.00 | 0.00 | 0.00 | 36 | 1015.4 |
| 20260509003007 | 21 | 147 | 3.2 | 11.3 | 0.00 | 0.00 | 0.00 | 35 | 1013.6 |
| 20260509002645 | 20 | 146 | 6.4 | 14.5 | 0.00 | 0.00 | 0.00 | 36 | 1015.4 |
| 20260509002143 | 20 | 163 | 8.0 | 16.1 | 0.00 | 0.00 | 0.00 | 36 | 1015.4 |
| 20260509001640 | 20 | 161 | 9.7 | 27.4 | 0.00 | 0.00 | 0.00 | 36 | 1015.4 |
| 20260509001512 | 21 | 153 | 6.4 | 27.4 | 0.00 | 0.00 | 0.00 | 35 | 1013.6 |
| 20260509001137 | 20 | 170 | 8.0 | 27.4 | 0.00 | 0.00 | 0.00 | 35 | 1015.5 |
| 20260509000637 | 20 | 202 | 8.0 | 19.3 | 0.00 | 0.00 | 0.00 | 36 | 1015.4 |
| 20260509000137 | 20 | 178 | 8.0 | 16.1 | 0.00 | 0.00 | 0.00 | 36 | 1015.5 |
| 20260509000007 | 21 | 193 | 9.7 | 16.1 | 0.00 | 0.00 | 0.00 | 36 | 1013.7 |
| 20260508235637 | 20 | 144 | 8.0 | 17.7 | 0.00 | 0.00 | 0.00 | 36 | 1015.5 |
| 20260508235137 | 20 | 144 | 9.7 | 17.7 | 0.00 | 0.00 | 0.00 | 35 | 1015.5 |
| 20260508234636 | 20 | 127 | 8.0 | 17.7 | 0.00 | 0.00 | 0.00 | 36 | 1015.4 |
| 20260508234512 | 21 | 123 | 9.7 | 17.7 | 0.00 | 0.00 | 0.00 | 36 | 1013.7 |
| 20260508234136 | 20 | 184 | 8.0 | 17.7 | 0.00 | 0.00 | 0.00 | 36 | 1015.4 |
| 20260508233635 | 20 | 144 | 6.4 | 16.1 | 0.00 | 0.00 | 0.00 | 36 | 1015.5 |
| 20260508233135 | 20 | 104 | 6.4 | 19.3 | 0.00 | 0.00 | 0.00 | 36 | 1015.5 |
| 20260508233014 | 21 | 98 | 4.8 | 16.1 | 0.00 | 0.00 | 0.00 | 35 | 1013.6 |
| 20260508232635 | 20 | 155 | 8.0 | 19.3 | 0.00 | 0.00 | 0.00 | 36 | 1015.4 |
| 20260508232135 | 20 | 118 | 9.7 | 19.3 | 0.00 | 0.00 | 0.00 | 36 | 1015.4 |
| 20260508231635 | 20 | 134 | 9.7 | 19.3 | 0.00 | 0.00 | 0.00 | 36 | 1015.4 |
| 20260508231514 | 21 | 117 | 12.9 | 19.3 | 0.00 | 0.00 | 0.00 | 35 | 1013.6 |
| 20260508231135 | 20 | 118 | 9.7 | 17.7 | 0.00 | 0.00 | 0.00 | 36 | 1015.4 |
| 20260508230635 | 20 | 123 | 11.3 | 17.7 | 0.00 | 0.00 | 0.00 | 36 | 1015.4 |
| 20260508230134 | 20 | 99 | 9.7 | 17.7 | 0.00 | 0.00 | 0.00 | 36 | 1015.5 |
| 20260508230010 | 21 | 110 | 9.7 | 17.7 | 0.00 | 0.00 | 0.00 | 36 | 1013.6 |
| 20260508225633 | 21 | 115 | 6.4 | 16.1 | 0.00 | 0.00 | 0.00 | 36 | 1015.5 |
| 20260508225133 | 21 | 147 | 8.0 | 20.9 | 0.00 | 0.00 | 0.00 | 37 | 1015.4 |
| 20260508224633 | 20 | 160 | 12.9 | 20.9 | 0.00 | 0.00 | 0.00 | 36 | 1015.4 |
| 20260508224512 | 22 | 151 | 9.7 | 20.9 | 0.00 | 0.00 | 0.00 | 36 | 1013.6 |
| 20260508224133 | 21 | 116 | 11.3 | 20.9 | 0.00 | 0.00 | 0.00 | 35 | 1015.4 |
| 20260508223639 | 21 | 113 | 8.0 | 16.1 | 0.00 | 0.00 | 0.00 | 32 | 1015.5 |
| 20260508223633 | 21 | 108 | 8.0 | 20.9 | 0.00 | 0.00 | 0.00 | 34 | 1015.5 |
| 20260508223033 | 23 | 167 | 4.8 | 16.1 | 0.00 | 0.00 | 0.00 | 33 | 1013.7 |
| 20260508222633 | 22 | 126 | 6.4 | 16.1 | 0.00 | 0.00 | 0.00 | 32 | 1015.4 |
| 20260508222133 | 22 | 184 | 4.8 | 16.1 | 0.00 | 0.00 | 0.00 | 33 | 1015.5 |
| 20260508221633 | 21 | 202 | 4.8 | 17.7 | 0.00 | 0.00 | 0.00 | 33 | 1015.6 |
| 20260508221514 | 22 | 182 | 4.8 | 12.9 | 0.00 | 0.00 | 0.00 | 32 | 1013.8 |
| 20260508221132 | 21 | 194 | 4.8 | 17.7 | 0.00 | 0.00 | 0.00 | 33 | 1015.9 |
| 20260508220631 | 22 | 179 | 8.0 | 19.3 | 0.00 | 0.00 | 0.00 | 32 | 1015.9 |
| 20260508220401 | 22 | 171 | 8.0 | 19.3 | 0.00 | 0.00 | 0.00 | 33 | 1015.9 |
| 20260508220011 | 23 | 162 | 9.7 | 19.3 | 0.00 | 0.00 | 0.00 | 32 | 1014.0 |
| 20260508215631 | 22 | 161 | 8.0 | 17.7 | 0.00 | 0.00 | 0.00 | 34 | 1015.9 |
| 20260508215401 | 22 | 196 | 8.0 | 17.7 | 0.00 | 0.00 | 0.00 | 35 | 1015.9 |
| 20260508214630 | 22 | 185 | 8.0 | 16.1 | 0.00 | 0.00 | 0.00 | 35 | 1015.9 |
| 20260508214512 | 22 | 189 | 4.8 | 16.1 | 0.00 | 0.00 | 0.00 | 35 | 1014.1 |
| 20260508214131 | 21 | 161 | 8.0 | 16.1 | 0.00 | 0.00 | 0.00 | 36 | 1015.9 |
| 20260508213630 | 21 | 204 | 6.4 | 16.1 | 0.00 | 0.00 | 0.00 | 35 | 1016.0 |
| 20260508213131 | 21 | 219 | 4.8 | 16.1 | 0.00 | 0.00 | 0.00 | 36 | 1016.0 |
| 20260508213014 | 22 | 102 | 1.6 | 12.9 | 0.00 | 0.00 | 0.00 | 34 | 1014.4 |
| 20260508212631 | 21 | 101 | 6.4 | 16.1 | 0.00 | 0.00 | 0.00 | 34 | 1016.1 |
| 20260508212131 | 21 | 130 | 6.4 | 16.1 | 0.00 | 0.00 | 0.00 | 35 | 1016.2 |
| 20260508211629 | 21 | 229 | 6.4 | 16.1 | 0.00 | 0.00 | 0.00 | 35 | 1016.2 |
| 20260508211515 | 22 | 247 | 6.4 | 14.5 | 0.00 | 0.00 | 0.00 | 35 | 1014.5 |
| 20260508211129 | 21 | 227 | 8.0 | 14.5 | 0.00 | 0.00 | 0.00 | 36 | 1016.3 |
| 20260508210629 | 21 | 173 | 6.4 | 16.1 | 0.00 | 0.00 | 0.00 | 36 | 1016.3 |
| 20260508210128 | 21 | 157 | 3.2 | 16.1 | 0.00 | 0.00 | 0.00 | 35 | 1016.3 |
| 20260508210016 | 22 | 155 | 8.0 | 16.1 | 0.00 | 0.00 | 0.00 | 35 | 1014.7 |
| 20260508205629 | 21 | 138 | 3.2 | 11.3 | 0.00 | 0.00 | 0.00 | 35 | 1016.5 |
| 20260508205128 | 21 | 135 | 4.8 | 14.5 | 0.00 | 0.00 | 0.00 | 35 | 1016.6 |
| 20260508204629 | 21 | 150 | 4.8 | 14.5 | 0.00 | 0.00 | 0.00 | 36 | 1016.6 |
| 20260508204516 | 21 | 141 | 1.6 | 16.1 | 0.00 | 0.00 | 0.00 | 36 | 1014.9 |
| 20260508204128 | 20 | 132 | 8.0 | 16.1 | 0.00 | 0.00 | 0.00 | 36 | 1016.7 |
| 20260508203627 | 21 | 126 | 8.0 | 16.1 | 0.00 | 0.00 | 0.00 | 37 | 1016.7 |
| 20260508203127 | 20 | 199 | 6.4 | 17.7 | 0.00 | 0.00 | 0.00 | 37 | 1016.6 |
| 20260508203018 | 21 | 227 | 6.4 | 17.7 | 0.00 | 0.00 | 0.00 | 37 | 1015.0 |
| 20260508202627 | 20 | 148 | 4.8 | 17.7 | 0.00 | 0.00 | 0.00 | 37 | 1016.7 |
| 20260508202127 | 20 | 169 | 3.2 | 11.3 | 0.00 | 0.00 | 0.00 | 39 | 1016.7 |
| 20260508201627 | 19 | 344 | 3.2 | 8.0 | 0.00 | 0.00 | 0.00 | 38 | 1016.8 |
| 20260508201516 | 20 | 342 | 0.0 | 8.0 | 0.00 | 0.00 | 0.00 | 38 | 1015.1 |
| 20260508201127 | 19 | 344 | 6.4 | 19.3 | 0.00 | 0.00 | 0.00 | 38 | 1016.8 |
| 20260508200627 | 19 | 124 | 9.7 | 19.3 | 0.00 | 0.00 | 0.00 | 39 | 1016.8 |
| 20260508200127 | 19 | 122 | 9.7 | 19.3 | 0.00 | 0.00 | 0.00 | 39 | 1016.9 |
| 20260508200010 | 20 | 143 | 8.0 | 19.3 | 0.00 | 0.00 | 0.00 | 39 | 1015.2 |
| 20260508195625 | 19 | 37 | 6.4 | 19.3 | 0.00 | 0.00 | 0.00 | 40 | 1016.9 |
| 20260508195125 | 18 | 125 | 4.8 | 14.5 | 0.00 | 0.00 | 0.00 | 41 | 1017.2 |
| 20260508194624 | 18 | 5 | 3.2 | 14.5 | 0.00 | 0.00 | 0.00 | 40 | 1017.0 |
| 20260508194515 | 20 | 41 | 6.4 | 14.5 | 0.00 | 0.00 | 0.00 | 41 | 1015.4 |
| 20260508194124 | 18 | 121 | 4.8 | 19.3 | 0.00 | 0.00 | 0.00 | 43 | 1017.3 |
| 20260508193623 | 18 | 113 | 9.7 | 19.3 | 0.00 | 0.00 | 0.00 | 43 | 1017.3 |
| 20260508193123 | 18 | 113 | 8.0 | 19.3 | 0.00 | 0.00 | 0.00 | 43 | 1017.3 |
| 20260508193017 | 19 | 113 | 9.7 | 17.7 | 0.00 | 0.00 | 0.00 | 43 | 1015.6 |
| 20260508192622 | 18 | 106 | 6.4 | 19.3 | 0.00 | 0.00 | 0.00 | 43 | 1017.3 |
| 20260508192123 | 18 | 84 | 6.4 | 19.3 | 0.00 | 0.00 | 0.00 | 44 | 1017.4 |
| 20260508191620 | 18 | 123 | 3.2 | 12.9 | 0.00 | 0.00 | 0.00 | 44 | 1017.4 |
| 20260508191533 | 18 | 184 | 4.8 | 12.9 | 0.00 | 0.00 | 0.00 | 43 | 1015.7 |
| 20260508191120 | 17 | 88 | 3.2 | 11.3 | 0.00 | 0.00 | 0.00 | 44 | 1017.5 |
| 20260508190621 | 17 | 98 | 4.8 | 12.9 | 0.00 | 0.00 | 0.00 | 44 | 1017.5 |
| 20260508190120 | 17 | 38 | 3.2 | 16.1 | 0.00 | 0.00 | 0.00 | 43 | 1017.6 |
| 20260508190026 | 18 | 65 | 4.8 | 11.3 | 0.00 | 0.00 | 0.00 | 42 | 1016.0 |
| 20260508185853 | 17 | 151 | 3.2 | 16.1 | 0.00 | 0.00 | 0.00 | 41 | 1017.6 |
| 20260508185121 | 17 | 150 | 6.4 | 17.7 | 0.00 | 0.00 | 0.00 | 41 | 1017.7 |
| 20260508184620 | 17 | 89 | 8.0 | 17.7 | 0.00 | 0.00 | 0.00 | 44 | 1017.7 |
| 20260508184524 | 18 | 109 | 11.3 | 17.7 | 0.00 | 0.00 | 0.00 | 44 | 1016.0 |
| 20260508184121 | 17 | 67 | 6.4 | 14.5 | 0.00 | 0.00 | 0.00 | 46 | 1017.7 |
| 20260508183621 | 17 | 48 | 6.4 | 14.5 | 0.00 | 0.00 | 0.00 | 44 | 1018.0 |
| 20260508183120 | 17 | 16 | 4.8 | 14.5 | 0.00 | 0.00 | 0.00 | 44 | 1018.0 |
| 20260508183016 | 18 | 40 | 1.6 | 14.5 | 0.00 | 0.00 | 0.00 | 45 | 1016.3 |
| 20260508182620 | 17 | 39 | 4.8 | 14.5 | 0.00 | 0.00 | 0.00 | 44 | 1018.1 |
| 20260508182120 | 17 | 114 | 6.4 | 14.5 | 0.00 | 0.00 | 0.00 | 43 | 1018.1 |
| 20260508181620 | 17 | 52 | 6.4 | 14.5 | 0.00 | 0.00 | 0.00 | 45 | 1018.2 |
| 20260508181517 | 18 | 119 | 6.4 | 16.1 | 0.00 | 0.00 | 0.00 | 46 | 1016.5 |
| 20260508181120 | 17 | 43 | 6.4 | 16.1 | 0.00 | 0.00 | 0.00 | 46 | 1018.3 |
| 20260508180620 | 17 | 73 | 4.8 | 16.1 | 0.00 | 0.00 | 0.00 | 46 | 1018.3 |
| 20260508180121 | 16 | 119 | 4.8 | 14.5 | 0.00 | 0.00 | 0.00 | 47 | 1018.4 |
| 20260508180012 | 17 | 78 | 0.0 | 11.3 | 0.00 | 0.00 | 0.00 | 45 | 1016.8 |
| 20260508175850 | 16 | 90 | 6.4 | 14.5 | 0.00 | 0.00 | 0.00 | 47 | 1018.6 |
| 20260508175118 | 16 | 36 | 4.8 | 14.5 | 0.00 | 0.00 | 0.00 | 46 | 1018.6 |
| 20260508174618 | 17 | 72 | 4.8 | 14.5 | 0.00 | 0.00 | 0.00 | 46 | 1018.7 |
| 20260508174517 | 18 | 96 | 8.0 | 14.5 | 0.00 | 0.00 | 0.00 | 46 | 1017.1 |
| 20260508174119 | 17 | 116 | 3.2 | 11.3 | 0.00 | 0.00 | 0.00 | 48 | 1018.8 |
| 20260508173619 | 17 | 53 | 3.2 | 11.3 | 0.00 | 0.00 | 0.00 | 51 | 1018.8 |
| 20260508173119 | 17 | 204 | 3.2 | 9.7 | 0.00 | 0.00 | 0.00 | 52 | 1018.9 |
| 20260508173019 | 17 | 250 | 1.6 | 6.4 | 0.00 | 0.00 | 0.00 | 52 | 1017.2 |
| 20260508172618 | 16 | 346 | 3.2 | 9.7 | 0.00 | 0.00 | 0.00 | 53 | 1018.9 |
| 20260508172119 | 16 | 17 | 3.2 | 9.7 | 0.00 | 0.00 | 0.00 | 53 | 1018.9 |
| 20260508171619 | 16 | 355 | 3.2 | 9.7 | 0.00 | 0.00 | 0.00 | 54 | 1019.0 |
| 20260508171519 | 17 | 17 | 3.2 | 9.7 | 0.00 | 0.00 | 0.00 | 53 | 1017.4 |
| 20260508171119 | 16 | 344 | 1.6 | 9.7 | 0.00 | 0.00 | 0.00 | 56 | 1019.1 |
| 20260508170619 | 15 | 0 | 3.2 | 9.7 | 0.00 | 0.00 | 0.00 | 58 | 1019.3 |
| 20260508170119 | 15 | 111 | 4.8 | 14.5 | 0.00 | 0.00 | 0.00 | 58 | 1019.1 |
| 20260508170018 | 16 | 109 | 3.2 | 14.5 | 0.00 | 0.00 | 0.00 | 58 | 1017.4 |
| 20260508165618 | 15 | 67 | 6.4 | 16.1 | 0.00 | 0.00 | 0.00 | 58 | 1019.1 |
| 20260508165119 | 15 | 71 | 6.4 | 16.1 | 0.00 | 0.00 | 0.00 | 58 | 1019.3 |
| 20260508164850 | 14 | 17 | 8.0 | 16.1 | 0.00 | 0.00 | 0.00 | 60 | 1019.1 |
| 20260508164520 | 15 | 71 | 4.8 | 16.1 | 0.00 | 0.00 | 0.00 | 60 | 1017.5 |
| 20260508164118 | 14 | 50 | 8.0 | 16.1 | 0.00 | 0.00 | 0.00 | 60 | 1019.1 |
| 20260508163618 | 14 | 86 | 6.4 | 16.1 | 0.00 | 0.00 | 0.00 | 60 | 1019.3 |
| 20260508163117 | 14 | 79 | 6.4 | 16.1 | 0.00 | 0.00 | 0.00 | 63 | 1019.3 |
| 20260508163021 | 15 | 64 | 8.0 | 16.1 | 0.00 | 0.00 | 0.00 | 62 | 1017.5 |
| 20260508162616 | 14 | 108 | 8.0 | 16.1 | 0.00 | 0.00 | 0.00 | 63 | 1019.4 |
| 20260508162117 | 13 | 107 | 9.7 | 16.1 | 0.00 | 0.00 | 0.00 | 61 | 1019.3 |
| 20260508161616 | 13 | 107 | 8.0 | 16.1 | 0.00 | 0.00 | 0.00 | 64 | 1019.3 |
| 20260508161523 | 15 | 90 | 6.4 | 16.1 | 0.00 | 0.00 | 0.00 | 62 | 1017.5 |
| 20260508161116 | 14 | 95 | 6.4 | 16.1 | 0.00 | 0.00 | 0.00 | 62 | 1019.3 |
| 20260508160617 | 13 | 140 | 4.8 | 12.9 | 0.00 | 0.00 | 0.00 | 63 | 1019.3 |
| 20260508160116 | 13 | 90 | 3.2 | 12.9 | 0.00 | 0.00 | 0.00 | 64 | 1019.3 |
| 20260508160020 | 15 | 88 | 4.8 | 12.9 | 0.00 | 0.00 | 0.00 | 62 | 1017.5 |
| 20260508155848 | 13 | 130 | 1.6 | 11.3 | 0.00 | 0.00 | 0.00 | 61 | 1019.3 |
| 20260508155116 | 13 | 149 | 3.2 | 9.7 | 0.00 | 0.00 | 0.00 | 60 | 1019.3 |
| 20260508154614 | 13 | 121 | 4.8 | 11.3 | 0.00 | 0.00 | 0.00 | 61 | 1019.1 |
| 20260508154522 | 14 | 175 | 3.2 | 11.3 | 0.00 | 0.00 | 0.00 | 60 | 1017.3 |
| 20260508154115 | 13 | 178 | 6.4 | 11.3 | 0.00 | 0.00 | 0.00 | 62 | 1019.1 |
| 20260508153615 | 13 | 158 | 8.0 | 14.5 | 0.00 | 0.00 | 0.00 | 61 | 1019.3 |
| 20260508153114 | 13 | 187 | 8.0 | 17.7 | 0.00 | 0.00 | 0.00 | 63 | 1019.1 |
| 20260508153018 | 14 | 188 | 8.0 | 14.5 | 0.00 | 0.00 | 0.00 | 64 | 1017.3 |
| 20260508152615 | 13 | 165 | 9.7 | 17.7 | 0.00 | 0.00 | 0.00 | 66 | 1019.1 |
| 20260508152112 | 12 | 190 | 11.3 | 17.7 | 0.00 | 0.00 | 0.00 | 67 | 1019.0 |
| 20260508151613 | 12 | 221 | 11.3 | 17.7 | 0.00 | 0.00 | 0.00 | 68 | 1019.0 |
| 20260508151521 | 13 | 193 | 11.3 | 17.7 | 0.00 | 0.00 | 0.00 | 69 | 1017.1 |
| 20260508151110 | 11 | 184 | 11.3 | 16.1 | 0.00 | 0.00 | 0.00 | 72 | 1018.9 |
| 20260508150610 | 11 | 194 | 11.3 | 16.1 | 0.00 | 0.00 | 0.00 | 72 | 1018.9 |
| 20260508150110 | 11 | 187 | 11.3 | 16.1 | 0.00 | 0.00 | 0.00 | 75 | 1018.9 |
| 20260508150022 | 12 | 187 | 9.7 | 16.1 | 0.00 | 0.00 | 0.00 | 74 | 1017.1 |
| 20260508145611 | 10 | 202 | 11.3 | 16.1 | 0.00 | 0.00 | 0.00 | 74 | 1019.0 |
| 20260508145110 | 10 | 174 | 11.3 | 16.1 | 0.00 | 0.00 | 0.00 | 76 | 1019.0 |
| 20260508144610 | 10 | 186 | 9.7 | 14.5 | 0.00 | 0.00 | 0.00 | 78 | 1019.1 |
| 20260508144521 | 11 | 178 | 11.3 | 14.5 | 0.00 | 0.00 | 0.00 | 77 | 1017.3 |
| 20260508144110 | 10 | 175 | 8.0 | 12.9 | 0.00 | 0.00 | 0.00 | 78 | 1019.0 |
| 20260508143610 | 10 | 147 | 8.0 | 14.5 | 0.00 | 0.00 | 0.00 | 77 | 1019.0 |
| 20260508143111 | 10 | 159 | 6.4 | 14.5 | 0.00 | 0.00 | 0.00 | 77 | 1019.1 |
| 20260508143020 | 11 | 143 | 4.8 | 14.5 | 0.00 | 0.00 | 0.00 | 77 | 1017.3 |
| 20260508142611 | 10 | 152 | 6.4 | 14.5 | 0.00 | 0.00 | 0.00 | 77 | 1018.9 |
| 20260508142111 | 10 | 170 | 8.0 | 14.5 | 0.00 | 0.00 | 0.00 | 77 | 1018.9 |
| 20260508141608 | 10 | 139 | 8.0 | 14.5 | 0.00 | 0.00 | 0.00 | 76 | 1018.9 |
| 20260508141522 | 11 | 132 | 9.7 | 14.5 | 0.00 | 0.00 | 0.00 | 76 | 1017.2 |
| 20260508141108 | 10 | 129 | 6.4 | 12.9 | 0.00 | 0.00 | 0.00 | 75 | 1019.0 |
| 20260508140608 | 10 | 156 | 3.2 | 11.3 | 0.00 | 0.00 | 0.00 | 76 | 1018.9 |
| 20260508140108 | 10 | 218 | 1.6 | 9.7 | 0.00 | 0.00 | 0.00 | 76 | 1018.8 |
| 20260508140020 | 11 | 234 | 0.0 | 9.7 | 0.00 | 0.00 | 0.00 | 76 | 1017.3 |
| 20260508135608 | 10 | 236 | 3.2 | 14.5 | 0.00 | 0.00 | 0.00 | 76 | 1018.9 |
| 20260508135107 | 9 | 238 | 6.4 | 14.5 | 0.00 | 0.00 | 0.00 | 77 | 1019.0 |
| 20260508134606 | 9 | 214 | 9.7 | 16.1 | 0.00 | 0.00 | 0.00 | 78 | 1018.8 |
| 20260508134518 | 10 | 209 | 6.4 | 16.1 | 0.00 | 0.00 | 0.00 | 77 | 1017.2 |
| 20260508134106 | 9 | 201 | 11.3 | 16.1 | 0.00 | 0.00 | 0.00 | 77 | 1018.8 |
| 20260508133606 | 9 | 180 | 9.7 | 16.1 | 0.00 | 0.00 | 0.00 | 78 | 1018.8 |
| 20260508133106 | 9 | 182 | 9.7 | 16.1 | 0.00 | 0.00 | 0.00 | 78 | 1018.9 |
| 20260508133012 | 10 | 154 | 8.0 | 16.1 | 0.00 | 0.00 | 0.00 | 77 | 1017.3 |
| 20260508132606 | 8 | 171 | 8.0 | 16.1 | 0.00 | 0.00 | 0.00 | 78 | 1018.9 |
| 20260508132107 | 8 | 179 | 8.0 | 19.3 | 0.00 | 0.00 | 0.00 | 78 | 1018.8 |
| 20260508131606 | 8 | 194 | 9.7 | 19.3 | 0.00 | 0.00 | 0.00 | 78 | 1018.8 |
| 20260508131511 | 10 | 182 | 8.0 | 19.3 | 0.00 | 0.00 | 0.00 | 78 | 1017.1 |
| 20260508131105 | 8 | 202 | 11.3 | 19.3 | 0.00 | 0.00 | 0.00 | 78 | 1018.8 |
| 20260508130606 | 8 | 210 | 9.7 | 19.3 | 0.00 | 0.00 | 0.00 | 78 | 1018.7 |
| 20260508130106 | 8 | 189 | 8.0 | 16.1 | 0.00 | 0.00 | 0.00 | 79 | 1018.6 |
| 20260508130022 | 10 | 198 | 9.7 | 16.1 | 0.00 | 0.00 | 0.00 | 78 | 1016.8 |
| 20260508125604 | 8 | 189 | 4.8 | 9.7 | 0.00 | 0.00 | 0.00 | 78 | 1018.4 |
| 20260508125104 | 8 | 148 | 3.2 | 8.0 | 0.00 | 0.00 | 0.00 | 78 | 1018.6 |
| 20260508124604 | 8 | 35 | 3.2 | 16.1 | 0.00 | 0.00 | 0.00 | 78 | 1018.7 |
| 20260508124514 | 10 | 35 | 1.6 | 9.7 | 0.00 | 0.00 | 0.00 | 78 | 1017.0 |
| 20260508124104 | 8 | 35 | 4.8 | 16.1 | 0.00 | 0.00 | 0.00 | 78 | 1018.7 |
| 20260508123604 | 8 | 29 | 6.4 | 16.1 | 0.00 | 0.00 | 0.00 | 78 | 1018.7 |
| 20260508123104 | 8 | 19 | 8.0 | 16.1 | 0.00 | 0.00 | 0.00 | 78 | 1018.7 |
| 20260508123024 | 10 | 28 | 6.4 | 16.1 | 0.00 | 0.00 | 0.00 | 78 | 1017.0 |
| 20260508122604 | 8 | 25 | 9.7 | 19.3 | 0.00 | 0.00 | 0.00 | 80 | 1018.7 |
| 20260508122335 | 8 | 18 | 9.7 | 19.3 | 0.00 | 0.00 | 0.00 | 80 | 1018.8 |
| 20260508121602 | 8 | 345 | 11.3 | 22.5 | 0.00 | 0.00 | 0.00 | 81 | 1018.8 |
| 20260508121523 | 10 | 14 | 8.0 | 20.9 | 0.00 | 0.00 | 0.00 | 80 | 1017.1 |
| 20260508121103 | 8 | 349 | 12.9 | 22.5 | 0.00 | 0.00 | 0.00 | 81 | 1018.7 |
| 20260508120602 | 8 | 348 | 12.9 | 22.5 | 0.00 | 0.00 | 0.00 | 81 | 1018.9 |
| 20260508120032 | 9 | 12 | 11.3 | 22.5 | 0.00 | 0.00 | 0.00 | 82 | 1017.5 |
| 20260508115602 | 8 | 5 | 11.3 | 20.9 | 0.00 | 0.00 | 0.00 | 83 | 1019.3 |
| 20260508115102 | 8 | 319 | 9.7 | 17.7 | 0.00 | 0.00 | 0.00 | 85 | 1019.4 |
| 20260508114606 | 7 | 355 | 0.0 | 8.0 | 0.00 | 0.00 | 0.00 | 86 | 1019.1 |
| 20260508114602 | 7 | 5 | 4.8 | 16.1 | 0.00 | 0.00 | 0.00 | 86 | 1019.4 |
| 20260508114513 | 8 | 347 | 9.7 | 16.1 | 0.00 | 0.00 | 0.00 | 86 | 1017.7 |
| 20260508113602 | 7 | 355 | 1.6 | 8.0 | 0.00 | 0.00 | 0.00 | 86 | 1018.8 |
| 20260508113332 | 7 | 355 | 3.2 | 8.0 | 0.00 | 0.00 | 0.00 | 86 | 1018.9 |
| 20260508113026 | 8 | 355 | 0.0 | 8.0 | 0.00 | 0.00 | 0.00 | 86 | 1017.3 |
| 20260508112600 | 7 | 355 | 3.2 | 8.0 | 0.00 | 0.00 | 0.00 | 86 | 1019.1 |
| 20260508112100 | 7 | 355 | 1.6 | 6.4 | 0.00 | 0.00 | 0.00 | 86 | 1018.9 |
| 20260508111600 | 7 | 236 | 0.0 | 1.6 | 0.00 | 0.00 | 0.00 | 86 | 1018.7 |
| 20260508111527 | 8 | 236 | 0.0 | 0.0 | 0.00 | 0.00 | 0.00 | 85 | 1017.0 |
| 20260508111101 | 7 | 236 | 0.0 | 1.6 | 0.00 | 0.00 | 0.00 | 85 | 1018.4 |
| 20260508110600 | 7 | 236 | 0.0 | 1.6 | 0.00 | 0.00 | 0.00 | 85 | 1018.4 |
| 20260508110100 | 7 | 236 | 0.0 | 4.8 | 0.00 | 0.00 | 0.00 | 85 | 1018.4 |
| 20260508110025 | 8 | 236 | 0.0 | 1.6 | 0.00 | 0.00 | 0.00 | 84 | 1016.6 |
| 20260508105600 | 7 | 236 | 0.0 | 4.8 | 0.00 | 0.00 | 0.00 | 85 | 1018.4 |
| 20260508105100 | 7 | 236 | 1.6 | 4.8 | 0.00 | 0.00 | 0.00 | 85 | 1018.3 |
| 20260508104600 | 7 | 236 | 0.0 | 4.8 | 0.00 | 0.00 | 0.00 | 85 | 1018.2 |
| 20260508104516 | 8 | 236 | 1.6 | 4.8 | 0.00 | 0.00 | 0.00 | 85 | 1016.4 |
| 20260508104059 | 7 | 330 | 0.0 | 0.0 | 0.00 | 0.00 | 0.00 | 86 | 1018.2 |
| 20260508103600 | 7 | 331 | 0.0 | 0.0 | 0.00 | 0.00 | 0.00 | 86 | 1018.2 |
| 20260508103100 | 7 | 331 | 0.0 | 0.0 | 0.00 | 0.00 | 0.00 | 86 | 1018.2 |
| 20260508103023 | 8 | 331 | 0.0 | 0.0 | 0.00 | 0.00 | 0.00 | 85 | 1016.4 |
| 20260508102600 | 7 | 331 | 0.0 | 6.4 | 0.00 | 0.00 | 0.00 | 86 | 1018.2 |
| 20260508102330 | 7 | 331 | 1.6 | 6.4 | 0.00 | 0.00 | 0.00 | 86 | 1018.1 |
| 20260508102205 | 7 | 331 | 1.6 | 6.4 | 0.00 | 0.00 | 0.00 | 85 | 1018.2 |
| 20260508101510 | 8 | 331 | 0.0 | 6.4 | 0.00 | 0.00 | 0.00 | 85 | 1016.4 |
| 20260508101100 | 7 | 331 | 0.0 | 6.4 | 0.00 | 0.00 | 0.00 | 85 | 1018.2 |
| 20260508100601 | 7 | 304 | 1.6 | 6.4 | 0.00 | 0.00 | 0.00 | 84 | 1018.1 |
| 20260508100332 | 7 | 350 | 3.2 | 14.5 | 0.00 | 0.00 | 0.00 | 84 | 1018.1 |
| 20260508100012 | 8 | 350 | 0.0 | 6.4 | 0.00 | 0.00 | 0.00 | 83 | 1016.3 |
| 20260508095601 | 7 | 350 | 6.4 | 14.5 | 0.00 | 0.00 | 0.00 | 83 | 1018.1 |
| 20260508095059 | 7 | 29 | 9.7 | 16.1 | 0.00 | 0.00 | 0.00 | 82 | 1018.1 |
| 20260508094559 | 8 | 39 | 4.8 | 16.1 | 0.00 | 0.00 | 0.00 | 81 | 1018.3 |
| 20260508094509 | 9 | 44 | 9.7 | 16.1 | 0.00 | 0.00 | 0.00 | 80 | 1016.4 |
| 20260508094058 | 8 | 49 | 3.2 | 9.7 | 0.00 | 0.00 | 0.00 | 80 | 1018.0 |
| 20260508093558 | 8 | 57 | 4.8 | 9.7 | 0.00 | 0.00 | 0.00 | 80 | 1017.7 |
| 20260508093058 | 7 | 57 | 4.8 | 9.7 | 0.00 | 0.00 | 0.00 | 81 | 1017.6 |
| 20260508093014 | 8 | 52 | 6.4 | 9.7 | 0.00 | 0.00 | 0.00 | 80 | 1015.9 |
| 20260508092555 | 7 | 29 | 1.6 | 6.4 | 0.00 | 0.00 | 0.00 | 80 | 1017.5 |
| 20260508092056 | 7 | 252 | 0.0 | 0.0 | 0.00 | 0.00 | 0.00 | 80 | 1017.3 |
| 20260508091555 | 7 | 251 | 0.0 | 0.0 | 0.00 | 0.00 | 0.00 | 80 | 1017.3 |
| 20260508091523 | 8 | 252 | 0.0 | 0.0 | 0.00 | 0.00 | 0.00 | 79 | 1015.5 |
| 20260508091055 | 7 | 252 | 0.0 | 6.4 | 0.00 | 0.00 | 0.00 | 80 | 1017.2 |
| 20260508090556 | 7 | 252 | 1.6 | 6.4 | 0.00 | 0.00 | 0.00 | 80 | 1017.2 |
| 20260508090056 | 7 | 252 | 1.6 | 6.4 | 0.00 | 0.00 | 0.00 | 80 | 1017.2 |
| 20260508090024 | 8 | 252 | 0.0 | 6.4 | 0.00 | 0.00 | 0.00 | 80 | 1015.4 |
| 20260508085556 | 8 | 253 | 0.0 | 6.4 | 0.00 | 0.00 | 0.00 | 80 | 1017.2 |
| 20260508085327 | 8 | 265 | 1.6 | 4.8 | 0.00 | 0.00 | 0.00 | 80 | 1017.2 |
| 20260508084556 | 8 | 267 | 1.6 | 4.8 | 0.00 | 0.00 | 0.00 | 80 | 1017.2 |
| 20260508084518 | 9 | 267 | 1.6 | 4.8 | 0.00 | 0.00 | 0.00 | 79 | 1015.4 |
| 20260508084056 | 8 | 269 | 0.0 | 0.0 | 0.00 | 0.00 | 0.00 | 80 | 1017.0 |
| 20260508083555 | 8 | 271 | 0.0 | 0.0 | 0.00 | 0.00 | 0.00 | 80 | 1017.0 |
| 20260508083056 | 8 | 271 | 0.0 | 0.0 | 0.00 | 0.00 | 0.00 | 80 | 1017.2 |
| 20260508083017 | 9 | 272 | 0.0 | 0.0 | 0.00 | 0.00 | 0.00 | 79 | 1015.4 |
| 20260508082556 | 8 | 321 | 0.0 | 0.0 | 0.00 | 0.00 | 0.00 | 80 | 1017.4 |
| 20260508082055 | 8 | 322 | 0.0 | 0.0 | 0.00 | 0.00 | 0.00 | 80 | 1017.4 |
| 20260508081555 | 8 | 322 | 0.0 | 0.0 | 0.00 | 0.00 | 0.00 | 80 | 1017.5 |
| 20260508081510 | 9 | 322 | 0.0 | 0.0 | 0.00 | 0.00 | 0.00 | 79 | 1015.7 |
| 20260508081056 | 8 | 322 | 0.0 | 0.0 | 0.00 | 0.00 | 0.00 | 80 | 1017.5 |
| 20260508080556 | 8 | 29 | 0.0 | 0.0 | 0.00 | 0.00 | 0.00 | 80 | 1017.9 |
| 20260508080055 | 8 | 30 | 0.0 | 0.0 | 0.00 | 0.00 | 0.00 | 79 | 1018.1 |
| 20260508080020 | 10 | 30 | 0.0 | 0.0 | 0.00 | 0.00 | 0.00 | 79 | 1016.4 |
| 20260508075555 | 8 | 30 | 0.0 | 0.0 | 0.00 | 0.00 | 0.00 | 80 | 1018.0 |
| 20260508075056 | 8 | 30 | 0.0 | 0.0 | 0.00 | 0.00 | 0.00 | 81 | 1018.1 |
| 20260508074556 | 8 | 30 | 0.0 | 0.0 | 0.00 | 0.00 | 0.00 | 80 | 1018.2 |
| 20260508074526 | 10 | 30 | 0.0 | 0.0 | 0.00 | 0.00 | 0.00 | 80 | 1016.5 |
| 20260508074055 | 9 | 30 | 0.0 | 0.0 | 0.00 | 0.00 | 0.00 | 80 | 1018.3 |
| 20260508073555 | 9 | 30 | 0.0 | 0.0 | 0.00 | 0.00 | 0.00 | 80 | 1018.1 |
| 20260508073056 | 9 | 49 | 0.0 | 0.0 | 0.00 | 0.00 | 0.00 | 80 | 1018.3 |
| 20260508073016 | 10 | 49 | 0.0 | 0.0 | 0.00 | 0.00 | 0.00 | 79 | 1016.6 |
| 20260508072555 | 9 | 49 | 0.0 | 0.0 | 0.00 | 0.00 | 0.00 | 80 | 1018.3 |
| 20260508072055 | 9 | 49 | 0.0 | 0.0 | 0.00 | 0.00 | 0.00 | 80 | 1018.3 |
| 20260508071556 | 9 | 49 | 0.0 | 0.0 | 0.00 | 0.00 | 0.00 | 80 | 1018.4 |
| 20260508071520 | 10 | 49 | 0.0 | 0.0 | 0.00 | 0.00 | 0.00 | 79 | 1016.6 |
| 20260508071326 | 9 | 49 | 0.0 | 0.0 | 0.00 | 0.00 | 0.00 | 79 | 1018.3 |
| 20260508070555 | 9 | 49 | 0.0 | 3.2 | 0.00 | 0.00 | 0.00 | 78 | 1018.4 |
| 20260508070055 | 9 | 49 | 0.0 | 3.2 | 0.00 | 0.00 | 0.00 | 78 | 1018.3 |
| 20260508070016 | 10 | 49 | 0.0 | 0.0 | 0.00 | 0.00 | 0.00 | 77 | 1016.6 |
| 20260508065556 | 10 | 49 | 0.0 | 3.2 | 0.00 | 0.00 | 0.00 | 77 | 1018.3 |
| 20260508065055 | 10 | 49 | 1.6 | 3.2 | 0.00 | 0.00 | 0.00 | 77 | 1018.2 |